Date,TemperatureHighF,TemperatureAvgF,TemperatureLowF,DewpointHighF,DewpointAvgF,DewpointLowF,HumidityHigh,HumidityAvg,HumidityLow,PressureMaxIn,PressureMinIn,WindSpeedMaxMPH,WindSpeedAvgMPH,GustSpeedMaxMPH,PrecipitationSumIn
2012-1-1,78.2,71.1,67.8,67.5,65.1,62.5,89,82,69,30.00,29.90,15,5,20,0.00
2012-1-2,77.0,71.1,67.9,69.7,66.3,63.3,92,85,74,30.04,29.95,18,4,22,0.00
2012-1-3,81.9,73.1,68.3,69.9,65.4,62.5,91,77,65,30.11,30.00,16,4,22,0.00
2012-1-4,74.9,71.3,69.8,68.7,66.3,64.0,90,84,77,30.17,30.05,19,8,24,0.02
2012-1-5,71.1,69.6,69.0,65.7,64.5,61.9,87,84,78,30.15,30.06,27,9,29,0.00
2012-1-6,69.3,68.9,68.2,63.9,62.3,60.5,83,80,74,30.07,30.04,19,9,24,0.00
2012-1-7,71.1,68.4,67.5,64.2,62.0,60.5,83,80,77,30.06,29.99,14,7,17,0.00
2012-1-16,71.8,71.6,71.3,70.5,70.2,70.0,96,96,96,29.95,29.93,14,10,18,0.00
2012-1-17,71.6,71.4,71.1,70.3,69.9,69.7,96,95,95,29.93,29.91,12,6,15,0.01
2012-1-18,77.6,72.3,70.2,71.7,69.9,68.6,97,92,81,30.01,29.89,20,9,22,0.00
2012-1-19,80.5,72.6,68.6,71.6,67.5,64.6,96,85,65,30.08,29.97,17,4,18,0.00
2012-1-20,80.3,72.1,69.2,68.7,66.1,64.2,89,82,66,30.09,29.99,17,7,22,0.00
2012-1-21,77.0,71.8,69.5,67.5,65.6,63.3,89,81,68,30.11,29.99,23,9,30,0.00
2012-1-22,77.6,71.8,69.0,66.3,65.0,62.6,88,80,64,30.05,29.90,24,8,32,0.01
2012-1-23,80.2,71.3,67.9,69.9,64.8,61.2,87,80,70,30.00,29.90,10,3,15,0.00
2012-1-24,79.4,71.6,67.1,67.4,65.2,62.1,91,81,64,30.00,29.90,13,4,17,0.00
2012-1-25,79.2,72.4,68.8,68.8,66.7,64.7,90,83,69,29.97,29.87,14,6,17,0.00
2012-1-26,77.3,71.3,65.6,69.6,66.4,59.4,92,85,74,29.92,29.82,18,7,24,0.01
2012-1-27,79.7,72.1,68.6,69.7,66.4,64.2,90,83,69,30.00,29.85,11,3,14,0.00
2012-1-28,74.5,71.0,66.8,65.8,64.4,61.7,92,80,66,30.07,29.95,27,9,28,0.20
2012-1-29,74.0,70.2,67.0,65.7,64.3,61.9,92,82,69,30.09,30.00,24,11,31,0.13
2012-1-30,73.7,69.8,66.6,65.3,63.7,62.1,89,81,73,30.07,29.94,23,9,28,0.01
2012-1-31,77.4,70.7,67.2,65.0,62.6,57.9,87,76,55,29.98,29.87,14,6,19,0.00
2012-2-1,77.9,70.7,67.2,64.2,61.5,57.4,80,73,55,30.00,29.86,15,5,18,0.00
2012-2-2,76.9,70.3,67.5,62.0,60.4,58.5,82,72,58,29.99,29.91,19,8,24,0.00
2012-2-3,77.3,70.3,66.1,63.3,60.9,54.5,87,73,47,29.96,29.82,25,8,28,0.00
2012-2-4,75.3,70.2,67.2,67.8,64.5,59.9,88,82,73,29.84,29.71,33,13,34,0.00
2012-2-5,77.7,70.8,68.0,67.3,65.0,61.4,92,82,68,29.85,29.71,29,10,33,0.12
2012-2-6,73.9,68.8,66.5,68.8,64.8,61.8,95,87,78,29.87,29.78,24,8,34,0.13
2012-2-7,73.3,68.4,65.9,68.5,64.8,57.7,98,89,73,29.88,29.71,39,19,51,0.34
2012-2-8,72.1,66.5,62.4,57.8,54.2,49.6,82,65,53,30.05,29.87,19,7,28,0.00
2012-2-9,74.0,66.8,60.6,59.0,56.4,53.6,85,70,58,30.20,30.05,23,8,36,0.01
2012-2-10,73.6,69.2,66.1,63.1,60.7,58.0,82,75,66,30.20,30.07,20,9,26,0.00
2012-2-11,76.2,70.5,68.2,65.6,63.8,62.3,85,80,68,30.20,30.10,20,8,22,0.00
2012-2-12,75.2,70.4,68.4,68.2,65.3,63.1,90,84,75,30.19,30.06,17,8,22,0.02
2012-2-13,76.0,70.7,67.5,66.3,64.9,62.7,90,82,69,30.15,30.01,15,7,20,0.00
2012-2-14,78.8,71.1,67.0,69.2,65.4,62.4,90,83,70,30.08,30.00,13,3,15,0.00
2012-2-15,74.7,69.9,68.0,66.4,64.8,61.9,91,84,75,30.13,30.01,12,3,19,0.02
2012-2-16,72.7,69.9,68.4,66.3,64.7,63.3,88,84,76,30.14,30.05,25,10,29,0.04
2012-2-17,74.1,70.1,67.0,65.3,63.6,61.2,90,80,67,30.17,30.05,28,12,30,0.07
2012-2-18,72.7,69.3,66.6,65.8,63.5,61.7,89,82,72,30.14,30.01,24,13,33,0.06
2012-2-19,74.8,69.9,65.8,65.8,63.8,62.0,91,81,69,30.08,29.96,27,12,31,0.20
2012-2-20,74.5,70.3,67.9,65.4,63.7,61.9,85,80,68,30.07,29.95,21,10,30,0.00
2012-2-21,74.4,70.6,68.3,66.4,64.4,62.8,86,81,73,30.08,29.98,25,10,29,0.00
2012-2-22,75.4,70.5,68.3,67.1,64.5,62.3,91,81,68,30.05,29.95,23,10,31,0.05
2012-2-23,74.8,70.6,68.3,66.7,64.8,62.6,89,82,72,30.00,29.86,19,8,27,0.00
2012-2-24,77.9,70.6,67.6,68.1,65.6,62.9,92,85,71,29.94,29.85,13,4,16,0.00
2012-2-25,76.4,71.4,69.1,70.8,66.2,61.8,92,84,75,29.96,29.87,13,4,18,0.10
2012-2-26,73.2,70.3,68.9,66.8,65.0,62.7,89,84,77,30.02,29.89,28,7,31,0.00
2012-2-27,76.8,70.6,68.1,66.7,64.2,62.6,86,80,70,30.02,29.92,19,9,25,0.00
2012-2-28,75.7,70.4,67.6,66.1,64.3,62.3,89,81,68,30.03,29.95,19,8,23,0.00
2012-2-29,76.5,70.2,68.0,67.0,64.5,63.0,88,82,71,30.03,29.94,21,8,26,0.09
2012-3-1,74.5,70.0,67.2,66.1,64.2,63.0,89,82,72,30.03,29.94,20,7,26,0.08
2012-3-2,76.4,70.3,67.6,68.3,65.3,61.1,93,85,72,30.04,29.94,11,5,17,0.29
2012-3-3,75.6,69.7,66.5,67.7,65.7,64.3,95,87,74,30.00,29.88,15,6,18,0.25
2012-3-4,71.5,68.2,66.3,66.1,64.1,62.3,93,87,80,29.94,29.82,20,8,32,0.65
2012-3-5,68.1,66.5,64.5,65.0,63.8,62.3,94,91,87,29.88,29.79,16,8,21,1.72
2012-3-6,69.0,66.4,64.0,68.4,65.5,62.7,99,97,91,29.97,29.78,31,8,39,5.23
2012-3-7,69.3,67.2,65.0,67.7,64.3,62.7,99,91,84,30.00,29.89,30,14,37,0.75
2012-3-8,68.3,65.6,64.1,63.7,62.6,61.2,94,90,82,30.00,29.91,40,18,40,2.36
2012-3-9,67.4,67.0,66.5,64.9,63.8,62.8,92,90,87,29.96,29.88,23,12,31,0.00
2012-3-10,68.1,67.8,67.3,65.2,64.7,63.7,92,90,87,30.08,0.00,23,16,32,0.01
2012-3-11,72.4,69.3,66.6,66.4,64.6,61.6,93,85,78,30.09,29.98,33,14,40,0.17
2012-3-12,72.2,68.1,66.1,65.5,62.9,59.4,95,84,68,30.10,30.01,30,12,33,0.28
2012-3-13,72.7,68.5,66.1,63.7,61.2,58.2,85,78,69,30.04,29.95,24,9,29,0.00
2012-3-14,73.6,68.9,66.7,64.0,60.8,58.5,81,76,63,30.05,29.95,24,9,24,0.00
2012-3-15,74.4,69.5,65.5,65.1,62.6,60.4,92,79,71,30.10,29.99,21,10,30,0.03
2012-3-16,75.5,70.1,66.6,66.4,63.8,60.7,88,81,71,30.14,30.04,23,11,32,0.02
2012-3-17,76.3,70.7,68.1,66.5,64.2,61.7,88,80,66,30.12,30.02,22,10,28,0.00
2012-3-18,74.0,69.6,66.0,66.7,64.7,63.5,93,85,76,30.06,29.99,24,9,29,0.02
2012-3-19,77.3,71.3,68.3,65.4,64.2,62.8,89,79,63,30.02,29.91,21,7,25,0.00
2012-3-20,77.8,71.7,67.6,67.6,64.8,61.8,89,79,69,30.05,29.92,15,5,21,0.00
2012-3-21,75.0,69.8,67.0,65.8,63.9,62.3,88,82,71,30.06,29.96,26,10,30,0.16
2012-3-22,73.6,69.9,66.9,64.1,62.8,61.0,89,79,67,30.05,29.93,24,12,28,0.08
2012-3-23,74.7,70.3,67.4,64.8,62.9,61.1,85,78,64,30.03,29.93,24,11,33,0.00
2012-3-24,74.1,69.7,68.0,65.7,63.3,61.3,85,80,71,30.05,29.98,25,11,29,0.01
2012-3-25,73.9,69.2,66.1,63.1,61.9,60.6,87,78,68,30.05,29.96,27,10,30,0.03
2012-3-26,72.1,68.5,65.2,63.0,61.3,60.0,89,78,67,30.05,29.96,21,9,31,0.17
2012-3-27,72.9,68.0,64.8,63.1,61.3,57.7,90,80,70,30.03,29.96,21,9,29,0.13
2012-3-28,74.8,69.0,65.7,62.6,59.5,56.7,78,72,60,30.03,29.95,19,7,23,0.00
2012-3-29,75.4,69.8,66.3,63.0,60.6,57.6,82,73,61,30.07,29.96,16,7,26,0.00
2012-3-30,73.3,69.7,67.4,63.9,62.2,60.3,86,78,69,30.07,29.98,26,13,33,0.00
2012-3-31,76.7,70.8,68.1,65.4,62.8,58.2,88,76,61,30.07,29.97,31,10,34,0.00
2012-4-1,78.0,71.7,68.3,67.8,65.7,64.3,90,82,68,30.07,29.97,19,6,29,0.00
2012-4-2,79.7,71.9,68.1,66.5,64.3,62.3,89,77,58,30.04,29.92,14,5,16,0.00
2012-4-3,79.7,72.3,68.1,67.4,65.0,63.2,88,79,65,30.00,29.88,14,6,18,0.00
2012-4-4,77.1,71.7,68.6,68.4,66.4,64.5,89,84,72,29.98,29.89,15,6,18,0.00
2012-4-5,73.6,70.1,68.7,66.3,64.1,61.7,90,81,70,29.99,29.90,19,8,26,0.03
2012-4-6,73.7,69.7,67.4,66.7,64.6,63.0,92,84,76,30.05,29.93,22,9,25,0.27
2012-4-7,73.2,69.9,68.5,65.3,63.8,61.6,87,81,75,30.08,29.98,24,11,30,0.00
2012-4-8,73.8,68.8,65.3,65.7,63.5,61.8,92,84,73,30.10,30.00,27,10,34,0.16
2012-4-9,69.1,66.7,65.3,63.0,61.7,60.0,91,84,76,30.10,30.04,25,10,27,0.26
2012-4-10,73.0,67.3,64.4,63.8,61.6,59.2,91,82,71,30.08,29.99,20,9,26,0.10
2012-4-11,75.3,69.6,65.6,65.9,63.3,60.9,92,81,70,30.08,29.98,18,8,24,0.28
2012-4-12,79.1,71.5,67.4,68.0,64.9,62.9,89,80,62,30.10,29.99,14,5,16,0.01
2012-4-13,77.8,71.4,67.4,68.5,65.7,63.4,95,83,70,30.10,30.00,9,2,12,0.00
2012-4-14,78.6,72.1,68.6,66.3,65.1,63.6,90,79,65,30.11,30.02,15,5,17,0.00
2012-4-15,76.7,70.9,67.6,68.0,65.2,63.5,90,83,71,30.10,30.01,22,8,26,0.07
2012-4-16,75.2,71.0,68.8,65.7,63.6,61.2,85,78,66,30.10,30.01,32,12,32,0.00
2012-4-17,74.7,70.9,68.9,65.0,62.7,59.1,85,76,63,30.11,29.98,29,12,31,0.00
2012-4-18,77.1,71.0,68.6,64.9,63.3,62.1,84,77,64,30.08,29.99,26,12,30,0.00
2012-4-19,75.7,70.8,68.4,64.1,62.5,59.5,84,75,60,30.07,29.99,18,9,27,0.00
2012-4-20,75.2,70.3,65.8,64.4,62.6,60.3,84,77,63,30.04,29.93,20,8,24,0.02
2012-4-21,73.7,69.5,67.2,64.4,62.8,60.8,88,80,70,30.00,29.91,21,9,25,0.07
2012-4-22,72.3,67.8,65.1,65.2,63.7,62.2,93,87,77,30.05,29.91,30,11,33,0.35
2012-4-23,72.3,68.4,65.7,64.2,62.4,58.5,93,82,71,30.09,29.98,26,12,33,0.23
2012-4-24,74.6,69.2,67.0,64.0,61.8,59.7,84,78,63,30.11,30.01,21,9,30,0.00
2012-4-25,75.5,69.9,64.1,65.8,63.3,60.0,91,80,67,30.06,29.97,21,8,25,0.07
2012-4-26,79.6,72.0,67.8,67.7,65.4,63.4,89,80,63,30.03,29.95,15,6,19,0.00
2012-4-27,76.4,71.4,67.5,67.6,65.7,64.0,91,82,72,30.05,29.96,19,5,27,0.01
2012-4-28,77.2,71.7,68.8,68.3,65.7,64.5,88,82,69,30.09,29.98,18,8,24,0.02
2012-4-29,76.5,71.2,68.9,67.1,64.9,63.2,87,81,71,30.08,30.00,22,9,29,0.00
2012-4-30,74.4,70.7,68.5,65.3,63.9,61.7,86,80,71,30.08,29.97,24,11,29,0.00
2012-5-1,74.9,70.9,68.5,67.0,64.8,62.8,88,81,73,30.06,29.95,19,10,29,0.00
2012-5-2,75.7,71.3,67.7,65.3,63.7,60.3,90,78,64,30.04,29.93,21,10,28,0.00
2012-5-3,72.8,68.9,67.4,65.7,64.0,62.0,89,84,76,30.03,29.96,21,11,30,0.03
2012-5-4,74.2,69.8,66.4,66.9,64.8,62.9,91,85,76,30.05,29.96,22,10,27,0.13
2012-5-5,77.4,71.2,68.1,66.3,64.6,63.0,89,80,69,30.05,29.96,18,8,24,0.02
2012-5-6,73.6,69.6,67.9,65.9,64.5,63.8,88,84,76,30.03,29.98,20,9,28,0.00
2012-5-7,75.9,72.1,68.9,65.2,64.1,63.0,86,76,66,30.08,30.00,21,10,27,0.02
2012-5-8,75.0,70.5,67.9,64.2,63.2,61.7,85,78,68,30.11,30.02,22,10,26,0.01
2012-5-9,73.9,70.2,67.7,64.9,63.1,61.1,85,78,71,30.06,29.98,22,9,27,0.00
2012-5-10,76.7,70.9,67.6,63.8,62.5,60.9,83,75,60,30.02,29.93,19,8,24,0.00
2012-5-11,77.1,70.9,67.5,65.4,62.9,61.1,86,76,62,29.99,29.92,19,8,22,0.01
2012-5-12,78.9,71.3,67.4,63.6,61.9,56.9,84,73,47,30.01,29.92,17,6,17,0.00
2012-5-13,78.6,71.2,66.2,62.7,60.3,55.6,82,69,50,29.99,29.90,12,4,17,0.00
2012-5-14,78.0,71.3,66.6,65.1,62.6,60.0,84,74,59,29.96,29.88,14,3,15,0.00
2012-5-15,83.3,72.9,67.3,64.9,62.1,51.0,86,71,34,29.98,29.88,14,5,19,0.00
2012-5-16,81.1,73.1,68.5,68.0,65.6,63.3,90,78,60,30.03,29.92,16,6,24,0.01
2012-5-17,76.9,72.1,69.6,66.9,65.4,63.5,88,80,68,30.06,29.97,18,9,26,0.01
2012-5-18,77.3,72.5,69.7,67.0,65.5,63.2,88,79,66,30.05,29.96,15,8,21,0.00
2012-5-19,78.1,72.3,69.5,67.5,65.5,63.5,87,80,69,30.03,29.94,21,8,25,0.00
2012-5-20,79.3,72.9,69.2,67.9,65.7,63.1,86,79,63,30.06,29.94,19,8,25,0.00
2012-5-21,77.4,72.6,70.0,68.2,66.2,62.7,87,81,71,30.07,29.98,19,9,33,0.00
2012-5-22,77.2,72.8,70.7,67.0,65.3,62.8,84,78,67,30.09,29.99,33,13,35,0.00
2012-5-23,76.2,72.5,69.8,67.5,65.2,63.0,84,78,66,30.06,29.97,24,11,32,0.00
2012-5-24,76.6,72.3,69.1,67.7,66.0,63.8,90,81,66,30.06,29.98,25,11,31,0.02
2012-5-25,77.3,72.5,69.6,68.4,65.7,62.9,89,80,67,30.03,29.96,28,13,35,0.02
2012-5-26,77.3,72.2,68.9,67.9,66.0,64.3,90,81,68,30.04,29.96,29,12,33,0.04
2012-5-27,76.2,71.7,68.9,67.9,66.0,63.9,90,83,71,30.04,29.95,27,12,33,0.10
2012-5-28,76.2,71.9,69.3,66.5,63.7,59.8,84,76,63,30.07,29.98,29,14,33,0.00
2012-5-29,75.7,72.1,69.5,66.4,64.3,62.0,84,77,67,30.09,30.01,24,12,31,0.00
2012-5-30,74.3,70.8,69.3,66.9,65.0,63.0,89,82,75,30.08,30.00,26,12,32,0.04
2012-5-31,75.9,70.9,68.5,66.7,64.9,63.7,92,82,70,30.09,30.02,23,11,28,0.19
2012-6-1,74.4,70.6,68.2,66.8,65.2,63.6,89,83,75,30.10,30.00,27,12,33,0.11
2012-6-2,74.9,71.1,68.9,64.8,63.6,61.8,85,78,66,30.10,30.02,27,12,30,0.00
2012-6-3,75.2,71.0,68.8,65.5,63.7,61.6,85,78,69,30.06,29.97,27,12,33,0.00
2012-6-4,76.2,71.6,69.1,67.4,65.7,64.0,86,82,70,30.04,29.95,23,10,32,0.01
2012-6-5,76.5,72.0,69.3,67.9,66.2,64.2,91,82,72,30.04,29.97,23,10,29,0.01
2012-6-6,76.5,71.8,69.1,68.8,66.9,64.8,93,85,71,30.03,29.96,25,10,29,0.06
2012-6-7,78.0,72.9,70.0,68.2,66.4,63.0,92,80,66,30.03,29.95,20,8,28,0.05
2012-6-8,80.1,73.2,69.8,68.2,66.2,64.1,90,80,62,30.01,29.93,19,8,22,0.02
2012-6-9,79.1,72.5,69.7,67.0,65.5,63.2,88,79,64,29.99,29.90,20,9,24,0.00
2012-6-10,77.8,72.5,69.5,67.4,65.9,64.6,88,80,66,29.97,29.90,20,8,26,0.00
2012-6-11,78.9,73.1,68.8,69.9,66.4,64.9,90,80,68,30.00,29.91,15,6,19,0.03
2012-6-12,79.3,73.1,69.3,70.3,67.1,65.1,91,82,70,29.99,29.91,17,6,20,0.02
2012-6-13,81.9,74.6,69.3,71.0,68.3,65.9,93,81,66,30.00,29.91,15,4,18,0.01
2012-6-14,81.9,74.5,70.4,69.1,67.0,65.3,88,78,63,30.01,29.92,15,6,16,0.00
2012-6-15,79.8,73.2,69.5,66.7,65.2,61.5,86,77,55,30.05,29.96,14,6,21,0.00
2012-6-16,77.7,72.8,69.6,68.3,66.0,63.4,87,80,67,30.07,29.99,25,10,33,0.00
2012-6-17,75.6,72.4,70.6,67.7,66.2,63.1,87,81,71,30.09,30.00,31,14,38,0.00
2012-6-18,75.0,71.7,69.9,66.4,65.2,63.8,85,80,73,30.06,29.95,29,13,40,0.00
2012-6-19,75.0,71.3,68.4,70.5,67.0,63.8,91,86,81,29.96,29.86,29,11,33,0.38
2012-6-20,76.5,71.6,68.2,67.8,66.5,65.1,94,84,70,29.98,29.88,19,8,25,0.12
2012-6-21,77.3,72.6,69.7,67.5,66.1,65.0,87,81,69,30.01,29.93,21,8,23,0.01
2012-6-22,78.2,72.8,69.3,68.1,66.7,64.0,91,82,63,30.03,29.94,19,8,27,0.05
2012-6-23,76.1,72.1,70.2,68.6,66.6,63.8,90,83,76,30.03,29.97,25,10,28,0.03
2012-6-24,75.8,71.6,68.8,67.1,65.7,63.8,90,82,71,30.07,29.99,26,13,32,0.04
2012-6-25,74.8,71.3,67.7,68.1,66.5,64.3,93,85,76,30.10,30.03,29,13,33,0.24
2012-6-26,73.9,70.3,68.1,67.5,66.3,63.7,94,87,78,30.10,29.99,29,12,33,0.51
2012-6-27,75.3,71.2,67.0,66.1,64.8,61.9,91,80,70,30.02,29.93,29,12,35,0.10
2012-6-28,74.4,71.4,69.6,68.4,66.3,63.9,90,84,78,30.05,29.94,21,10,26,0.41
2012-6-29,76.7,72.3,69.7,67.5,65.9,64.5,89,81,71,30.07,30.00,23,10,28,0.06
2012-6-30,78.2,73.0,69.8,68.0,66.0,64.4,88,79,66,30.03,29.90,22,9,28,0.00
2012-7-9,76.6,72.5,70.9,67.5,65.9,64.6,84,80,73,30.03,29.95,24,11,27,0.01
2012-7-10,76.2,72.2,69.7,68.4,65.9,63.4,87,81,73,30.03,29.94,23,10,31,0.11
2012-7-11,77.3,72.6,70.1,68.5,65.4,63.6,84,79,68,30.00,29.93,20,8,23,0.00
2012-7-12,78.3,73.1,69.9,68.1,65.8,63.9,90,78,62,29.97,29.89,19,9,26,0.01
2012-7-13,76.9,73.2,70.5,70.6,68.5,67.1,92,85,75,29.96,29.88,27,13,33,0.08
2012-7-14,78.0,73.9,70.9,68.8,67.2,65.9,89,80,67,30.01,29.89,27,12,34,0.02
2012-7-15,77.1,72.7,70.7,68.9,66.7,64.5,89,82,72,30.00,29.93,23,10,28,0.10
2012-7-16,71.7,70.9,70.4,67.6,66.8,65.9,90,87,85,29.98,29.93,22,11,24,0.03
2012-7-18,75.2,72.6,71.3,69.6,68.1,66.5,89,86,81,30.00,29.93,25,12,30,0.06
2012-7-19,77.7,73.0,69.2,68.0,66.6,64.7,91,81,67,30.02,29.94,22,10,28,0.14
2012-7-20,79.1,73.5,69.2,68.1,66.3,64.9,89,79,65,29.98,29.91,17,7,23,0.05
2012-7-21,79.9,73.7,69.8,69.3,66.9,65.1,87,80,68,29.97,29.90,11,5,18,0.01
2012-7-22,82.3,74.7,70.5,68.9,67.1,64.6,89,78,57,29.99,29.91,16,6,20,0.02
2012-7-23,80.1,74.2,71.2,68.9,67.5,66.2,90,80,67,30.01,29.95,19,8,26,0.00
2012-7-24,77.8,73.5,71.4,69.8,67.0,65.0,87,80,69,30.00,29.91,21,9,28,0.03
2012-7-25,78.1,73.6,70.9,68.4,66.0,63.9,85,78,68,29.97,29.89,21,11,28,0.00
2012-7-26,78.2,73.4,70.6,67.8,65.8,63.8,84,78,67,29.96,29.89,23,9,25,0.00
2012-7-27,78.8,73.5,70.7,69.4,66.0,64.4,88,78,67,29.98,29.90,21,8,25,0.03
2012-7-28,78.6,73.4,70.9,69.7,67.6,66.0,89,82,71,29.99,29.92,16,9,24,0.18
2012-7-29,78.7,72.6,69.7,71.1,67.9,66.2,93,85,73,30.01,29.93,20,10,25,0.38
2012-7-30,77.4,73.5,71.7,70.8,68.7,66.5,91,85,77,30.01,29.93,22,11,31,0.09
2012-7-31,78.0,74.2,72.2,69.5,68.3,67.2,88,82,71,30.02,29.92,22,11,32,0.00
2012-8-1,80.3,74.6,71.9,69.3,67.4,65.2,88,79,62,30.01,29.94,21,10,26,0.00
2012-8-2,78.8,73.8,71.2,69.7,67.3,65.7,87,81,69,30.02,29.94,18,8,23,0.00
2012-8-3,80.4,74.1,71.2,69.4,67.4,65.7,86,80,68,30.01,29.95,18,8,26,0.00
2012-8-4,80.2,74.4,71.4,68.3,66.9,65.4,87,78,63,30.02,29.93,18,8,23,0.00
2012-8-5,80.2,74.5,71.1,69.1,67.1,65.3,89,78,65,30.00,29.92,16,7,20,0.03
2012-8-6,80.1,74.2,70.8,69.4,67.0,64.9,88,79,61,29.99,29.92,18,8,24,0.02
2012-8-7,78.8,74.1,71.3,68.3,66.5,64.7,85,78,64,30.00,29.92,19,9,28,0.00
2012-8-8,77.5,73.6,69.6,68.7,66.9,65.0,89,80,71,30.03,29.93,25,10,30,0.05
2012-8-9,78.4,74.2,71.7,69.7,67.5,64.5,87,80,70,30.06,29.96,19,9,26,0.02
2012-8-10,78.2,73.6,70.9,67.6,66.0,62.8,88,78,64,30.04,29.92,21,8,32,0.01
2012-8-11,78.7,73.0,68.3,68.6,67.0,65.2,92,82,67,29.97,29.88,21,8,24,0.13
2012-8-12,81.0,74.6,70.5,70.2,67.8,65.6,87,80,68,29.98,29.89,21,8,25,0.00
2012-8-13,80.0,74.6,71.2,70.8,68.5,67.0,91,82,69,30.00,29.91,24,9,27,0.07
2012-8-14,78.9,73.9,70.0,69.1,67.5,65.7,92,81,68,29.99,29.90,23,12,31,0.05
2012-8-15,79.0,74.5,71.7,68.8,67.1,65.1,86,78,67,29.97,29.88,27,11,31,0.00
2012-8-16,81.2,74.8,71.7,68.4,66.4,63.5,84,76,56,30.00,29.90,20,9,26,0.00
2012-8-17,79.7,74.3,71.6,68.1,66.3,64.5,85,77,64,29.99,29.93,19,8,24,0.00
2012-8-18,79.4,74.0,70.0,69.7,67.5,65.4,90,80,66,29.98,29.87,21,8,25,0.06
2012-8-19,79.4,74.1,69.9,70.4,68.2,65.6,92,82,64,29.96,29.88,21,9,26,0.13
2012-8-20,79.4,74.9,72.1,71.3,68.7,67.7,88,82,70,30.00,29.92,18,8,26,0.02
2012-8-21,80.2,74.6,71.3,70.6,68.1,66.6,87,81,67,30.03,29.96,17,8,22,0.06
2012-8-22,80.9,74.9,71.0,70.3,67.9,66.6,89,79,66,30.02,29.95,16,7,24,0.03
2012-8-23,80.0,75.1,72.1,71.1,68.5,66.4,86,80,70,30.01,29.93,18,8,21,0.01
2012-8-24,83.9,75.9,72.3,71.2,68.8,67.6,87,79,64,30.02,29.94,19,7,23,0.00
2012-8-25,80.5,74.8,71.7,68.8,67.1,64.4,86,78,60,30.05,29.95,23,9,26,0.01
2012-8-26,79.2,74.1,71.5,68.3,66.9,65.7,87,79,67,30.01,29.94,19,9,26,0.05
2012-8-27,78.1,73.1,68.0,68.8,67.2,64.5,90,82,71,30.01,29.91,21,9,26,0.29
2012-8-28,78.4,73.3,70.0,69.1,67.3,65.7,90,82,71,29.99,29.92,19,9,25,0.21
2012-8-29,79.7,73.3,69.8,70.6,67.6,65.5,90,83,69,29.99,29.90,23,9,27,0.07
2012-8-30,79.4,74.1,71.3,70.4,67.8,65.8,86,81,70,29.99,29.91,20,8,24,0.01
2012-8-31,80.4,74.3,71.2,69.1,67.7,66.2,88,80,66,30.03,29.94,26,9,28,0.02
2012-9-1,79.4,74.0,70.7,69.1,67.2,65.9,88,80,65,30.03,29.95,20,10,26,0.03
2012-9-2,77.5,73.1,69.4,68.2,66.7,63.8,90,81,70,30.03,29.93,21,10,27,0.08
2012-9-3,78.4,73.8,70.1,68.3,66.7,64.1,90,79,62,30.01,29.91,23,11,30,0.04
2012-9-4,79.9,74.3,71.3,69.0,67.2,64.6,87,79,65,30.02,29.95,25,10,29,0.03
2012-9-5,79.3,73.3,69.7,69.2,67.2,65.3,92,82,68,30.04,29.94,20,9,26,0.15
2012-9-6,81.6,74.6,71.2,68.4,66.5,62.2,88,77,53,29.97,29.87,22,8,23,0.00
2012-9-7,75.1,72.1,70.1,70.4,68.0,67.0,91,87,82,29.94,29.86,15,6,17,0.07
2012-9-8,83.4,76.7,72.6,70.9,69.0,67.4,88,78,65,30.02,29.91,16,6,19,0.01
2012-9-9,80.4,74.7,72.1,70.5,68.8,66.6,89,82,66,30.04,29.95,25,8,25,0.01
2012-9-10,79.7,74.2,72.0,68.7,67.4,65.3,86,80,68,30.03,29.93,23,10,26,0.00
2012-9-11,78.7,74.0,71.7,68.2,66.4,63.8,83,77,69,29.98,29.90,25,10,27,0.00
2012-9-12,79.1,73.6,70.4,68.1,66.5,64.5,88,79,62,29.99,29.89,24,8,25,0.14
2012-9-13,79.4,73.5,70.9,69.5,66.8,64.5,88,80,71,30.00,29.90,22,8,22,0.08
2012-9-14,78.6,73.7,70.2,68.2,66.3,62.5,89,78,64,30.00,29.91,17,8,23,0.09
2012-9-15,80.4,73.9,70.5,69.1,66.7,65.1,86,79,63,29.99,29.89,20,6,22,0.00
2012-9-16,79.2,74.2,71.2,67.7,66.5,64.7,87,78,62,29.99,29.91,16,7,25,0.00
2012-9-17,79.5,74.2,71.2,68.5,66.9,65.4,86,78,63,29.97,29.87,16,8,25,0.00
2012-9-18,78.8,73.2,67.1,68.3,66.5,64.2,91,80,65,29.94,29.84,21,7,23,0.31
2012-9-19,81.8,74.8,71.1,70.8,68.2,66.5,88,81,67,29.95,29.87,15,6,18,0.01
2012-9-20,80.5,74.0,70.7,73.0,70.5,67.9,94,89,76,29.96,29.88,10,2,14,0.26
2012-9-21,83.4,75.2,71.6,70.9,69.2,67.2,94,82,63,29.97,29.88,16,5,21,0.00
2012-9-22,79.6,74.3,71.5,69.4,67.8,65.4,88,81,67,29.96,29.88,23,10,29,0.01
2012-9-23,77.1,73.5,71.1,72.2,69.8,67.7,94,89,82,29.98,29.91,22,11,28,0.40
2012-9-24,76.6,73.4,70.0,70.4,68.4,66.9,93,85,77,30.01,29.91,25,10,30,0.18
2012-9-25,78.7,73.6,71.0,69.7,67.2,65.8,88,81,67,30.01,29.91,18,8,26,0.07
2012-9-26,77.9,73.4,70.6,69.3,67.7,66.4,91,83,73,30.00,29.90,19,8,24,0.14
2012-9-27,78.7,73.7,71.2,68.9,67.4,66.1,90,81,66,30.00,29.92,20,9,26,0.01
2012-9-28,79.4,73.4,70.1,69.3,67.7,66.3,93,83,66,29.96,29.86,22,9,26,0.09
2012-9-29,79.4,73.9,71.3,70.1,67.9,65.9,90,82,69,29.96,29.86,17,7,21,0.06
2012-9-30,83.5,75.2,69.6,71.9,68.6,66.7,93,81,61,29.94,29.84,12,4,14,0.13
2012-10-1,80.9,74.6,69.7,71.0,68.0,63.8,91,81,61,29.91,29.81,10,2,12,0.00
2012-10-2,80.4,74.7,71.3,72.3,68.4,66.0,88,81,67,29.93,29.82,12,3,13,0.00
2012-10-3,82.2,74.5,71.7,70.3,68.3,67.4,88,82,66,29.98,29.87,14,6,18,0.00
2012-10-4,81.3,74.9,71.5,70.5,67.9,66.0,88,79,63,29.96,29.88,14,5,16,0.00
2012-10-5,80.5,74.5,71.0,71.5,67.9,64.9,91,80,67,29.93,29.81,12,3,13,0.01
2012-10-6,78.9,73.5,70.2,72.0,69.7,68.1,94,89,78,29.86,29.77,16,6,18,0.07
2012-10-7,81.0,75.2,72.0,72.7,70.6,66.8,93,86,67,29.85,29.76,20,10,24,0.00
2012-10-8,82.0,75.2,72.3,74.0,71.3,69.5,93,88,75,29.91,29.80,19,8,22,0.00
2012-10-9,83.1,76.0,71.5,72.7,69.8,67.4,93,82,64,29.99,29.88,15,6,20,0.00
2012-10-10,83.8,76.3,72.6,72.2,70.2,68.1,93,82,65,30.02,29.92,19,6,21,0.00
2012-10-11,80.8,75.6,73.2,72.2,69.8,67.4,91,83,74,30.02,29.90,23,8,26,0.02
2012-10-12,80.3,75.0,72.3,70.8,68.4,66.5,87,80,71,30.06,29.95,23,9,28,0.00
2012-10-13,78.5,74.8,72.6,71.6,69.5,67.4,89,84,75,30.07,29.98,28,10,30,0.00
2012-10-14,78.6,73.7,70.6,71.4,69.4,67.9,92,87,76,30.06,29.97,27,11,30,0.11
2012-10-15,78.8,74.3,70.5,69.7,68.4,65.7,93,82,68,30.03,29.89,23,9,25,0.09
2012-10-16,81.1,74.4,71.7,70.4,68.6,67.0,90,83,70,29.95,29.87,17,6,23,0.02
2012-10-17,80.6,74.5,71.3,69.4,67.7,65.2,88,80,66,29.92,29.82,12,5,19,0.00
2012-10-18,80.7,74.2,71.3,70.9,68.1,66.6,91,82,68,29.95,29.84,17,6,23,0.09
2012-10-19,80.0,74.3,71.4,68.3,66.6,62.1,88,78,56,29.96,29.86,20,9,25,0.00
2012-10-20,80.9,74.6,71.7,69.7,68.0,65.8,88,80,66,29.92,29.83,20,9,28,0.00
2012-10-21,79.5,74.4,71.7,68.7,66.7,64.4,86,77,62,29.92,29.84,23,9,28,0.00
2012-10-22,80.2,74.4,71.8,69.2,66.8,62.8,85,78,60,29.94,29.81,18,8,23,0.00
2012-10-23,82.4,75.9,72.0,71.0,68.5,66.1,86,79,64,29.90,29.80,14,4,17,0.00
2012-10-24,82.3,76.0,72.2,73.4,70.3,67.5,89,83,71,29.85,29.76,12,3,13,0.00
2012-10-25,84.5,76.3,71.6,74.4,70.7,68.9,93,84,65,29.93,29.79,13,3,19,0.04
2012-10-26,84.8,75.8,72.1,73.2,70.4,68.1,93,84,66,30.00,29.87,11,4,15,0.00
2012-10-27,81.2,75.0,71.1,70.8,68.7,67.3,92,81,67,30.00,29.89,17,5,22,0.07
2012-10-28,78.3,73.2,70.2,69.7,68.2,66.2,94,85,72,29.97,29.87,21,9,27,0.13
2012-10-29,78.4,73.3,70.3,68.4,67.4,65.1,91,82,66,30.00,29.89,19,10,27,0.11
2012-10-30,78.1,73.3,70.0,69.5,67.5,65.7,90,82,69,30.02,29.90,19,8,23,0.09
2012-10-31,78.4,73.4,70.5,68.9,66.9,64.7,90,80,67,30.00,29.90,17,6,21,0.05
2012-11-1,79.5,73.4,70.1,67.7,65.0,61.5,84,75,62,29.95,29.85,15,5,19,0.00
2012-11-2,81.0,74.4,69.8,67.4,64.9,61.3,83,73,58,29.92,29.79,12,3,15,0.00
2012-11-3,82.1,74.6,71.2,69.3,66.6,64.4,85,77,63,29.92,29.84,13,4,15,0.00
2012-11-4,82.9,74.4,70.8,68.6,65.7,63.1,85,75,56,29.92,29.86,9,2,12,0.00
2012-11-5,79.4,73.9,70.2,68.9,67.1,64.3,87,80,65,29.92,29.81,19,7,27,0.00
2012-11-6,77.4,73.2,71.0,69.5,68.1,66.9,92,84,74,29.90,29.80,22,10,26,0.23
2012-11-7,79.3,73.7,71.2,69.3,67.3,65.0,86,81,70,29.98,29.86,19,9,22,0.01
2012-11-8,77.8,73.3,71.4,69.9,67.7,66.5,88,83,72,30.03,29.94,18,9,24,0.15
2012-11-9,77.5,73.2,70.3,68.5,66.7,65.2,86,80,71,30.03,29.92,26,10,32,0.02
2012-11-10,77.5,72.9,70.2,67.2,65.3,64.0,84,77,65,30.01,29.90,23,11,29,0.05
2012-11-11,77.9,73.2,70.7,66.9,65.5,64.1,84,77,67,30.01,29.90,18,10,29,0.00
2012-11-12,77.9,73.1,69.7,67.3,66.0,64.9,88,79,68,30.05,29.95,19,9,31,0.06
2012-11-13,76.2,72.5,69.5,67.6,66.1,64.8,87,81,73,30.06,29.96,24,11,30,0.07
2012-11-14,76.9,72.8,71.1,67.7,66.1,65.1,85,80,69,30.08,29.97,28,12,29,0.03
2012-11-15,74.4,71.5,68.9,67.0,64.1,61.6,91,78,69,30.06,29.98,23,10,32,0.23
2012-11-16,76.2,70.9,66.3,65.5,63.8,61.8,91,79,62,30.05,29.95,20,10,31,0.07
2012-11-17,75.2,71.5,69.0,66.9,65.0,63.3,87,80,68,30.04,29.94,21,10,26,0.08
2012-11-18,78.7,72.7,70.7,67.4,66.0,62.3,86,80,59,30.05,29.95,21,8,28,0.00
2012-11-19,79.8,73.1,70.8,68.3,66.7,64.9,87,81,66,30.03,29.94,19,8,24,0.00
2012-11-20,75.7,71.8,70.4,67.5,65.7,63.7,87,81,69,30.01,29.89,18,8,22,0.01
2012-11-21,78.0,71.9,70.2,69.8,66.6,64.3,88,83,74,29.94,29.85,19,5,20,0.00
2012-11-22,76.0,73.3,70.5,70.1,68.0,66.4,90,84,79,29.91,29.81,10,3,13,0.00
2012-11-23,83.4,74.6,70.3,70.1,67.0,65.1,90,78,60,29.92,29.82,15,4,16,0.00
2012-11-24,77.5,73.2,70.3,69.1,67.0,65.0,88,81,71,29.93,29.83,16,5,24,0.00
2012-11-25,76.1,71.7,70.4,67.0,65.0,62.8,85,80,71,29.95,29.81,35,9,39,0.00
2012-11-26,73.5,70.1,67.1,65.7,62.3,58.8,90,77,67,30.00,29.89,27,10,32,0.41
2012-11-27,75.0,70.6,68.4,62.9,60.6,58.1,81,71,59,30.03,29.93,23,9,26,0.01
2012-11-28,78.7,71.0,68.1,65.3,62.6,59.4,85,75,63,30.01,29.89,14,5,17,0.00
2012-11-29,77.6,71.1,67.6,68.5,65.2,62.3,87,82,72,30.01,29.90,6,2,11,0.00
2012-11-30,78.2,71.7,67.5,68.6,65.3,59.3,89,81,69,30.00,29.89,10,2,13,0.00
2012-12-1,79.3,71.9,67.7,68.9,65.8,60.3,91,82,53,30.00,29.89,9,3,12,0.00
2012-12-2,78.3,72.6,69.8,70.6,68.0,64.3,94,86,75,29.99,29.82,14,5,16,0.00
2012-12-3,77.6,73.7,71.4,73.0,70.8,68.7,96,91,77,29.93,29.82,24,11,29,0.06
2012-12-4,80.2,74.0,71.1,73.5,70.5,67.7,95,89,77,29.99,29.87,11,2,14,0.00
2012-12-5,79.0,73.9,71.3,71.6,69.6,68.1,95,87,71,30.03,29.91,14,3,18,0.11
2012-12-6,80.0,73.3,69.8,70.6,67.5,65.6,92,83,69,29.94,29.82,10,3,15,0.00
2012-12-7,79.8,73.2,70.3,71.1,67.1,64.8,90,82,68,29.94,29.77,19,5,24,0.00
2012-12-8,79.7,72.7,69.8,68.9,67.3,65.9,91,84,66,29.92,29.81,18,7,23,0.00
2012-12-9,75.9,72.3,70.2,68.6,66.8,65.3,88,83,77,29.94,29.82,20,9,27,0.00
2012-12-10,76.3,72.3,70.7,67.6,65.5,62.9,87,79,67,29.98,29.87,24,11,30,0.00
2012-12-11,74.2,71.5,69.7,66.9,64.8,63.3,85,80,72,30.03,29.92,27,12,33,0.03
2012-12-12,74.1,70.9,67.9,66.1,64.4,62.7,89,80,71,30.04,29.93,27,13,34,0.21
2012-12-13,75.0,70.6,67.6,67.2,65.1,63.2,90,83,74,30.07,29.98,27,14,36,0.26
2012-12-14,75.3,70.9,67.6,66.7,64.6,62.6,92,81,69,30.08,29.99,33,14,37,0.13
2012-12-15,74.7,70.4,67.5,66.8,64.6,61.6,93,82,71,30.07,29.96,25,13,34,0.19
2012-12-16,73.9,70.5,67.6,66.7,64.8,60.5,92,83,72,30.05,29.94,35,14,35,0.06
2012-12-17,70.9,69.3,67.5,66.6,65.1,63.0,93,87,81,30.05,29.97,33,15,37,0.50
2012-12-18,74.5,70.6,68.4,67.1,65.4,63.7,89,84,75,30.03,29.93,28,14,40,0.08
2012-12-19,73.9,70.6,68.8,68.0,65.7,64.1,90,85,80,30.00,29.90,27,13,35,0.14
2012-12-20,72.2,69.4,66.3,65.2,63.9,62.3,91,83,76,30.00,29.90,28,13,33,0.29
2012-12-21,72.7,69.7,68.4,65.0,62.9,60.5,85,79,73,30.00,29.90,28,12,32,0.00
2012-12-22,76.4,70.8,68.2,64.9,62.9,60.8,84,77,60,30.00,29.87,16,8,24,0.00
2012-12-23,80.0,71.5,67.4,63.5,61.3,55.7,84,72,48,29.97,29.84,13,4,16,0.00
2012-12-24,76.7,72.0,68.7,67.6,62.3,53.1,80,72,54,29.96,29.84,12,2,15,0.00
2012-12-25,74.1,71.4,69.3,69.4,66.3,61.9,95,84,66,30.00,29.91,17,6,22,0.17
2012-12-26,78.5,71.3,69.3,67.3,64.9,62.8,85,80,67,30.00,29.88,21,9,25,0.00
2012-12-27,76.0,71.1,68.6,65.2,64.1,62.3,86,79,65,29.99,29.86,16,7,23,0.00
2012-12-28,77.9,71.6,67.4,68.0,65.4,61.6,90,81,70,29.94,29.83,11,3,13,0.00
2012-12-29,77.8,71.7,67.4,66.3,63.8,60.2,89,77,60,29.96,29.85,12,4,17,0.00
2012-12-30,80.0,71.8,68.3,69.0,66.7,64.7,93,85,67,29.97,29.86,14,4,16,0.07
2012-12-31,80.3,73.5,69.6,71.3,66.3,61.7,87,79,68,29.98,29.91,10,2,13,0.00
2013-1-1,71.3,67.8,66.1,66.6,64.8,63.2,93,90,84,30.04,29.93,27,14,35,1.06